Weather History for Lumberton, NC

Change the Weather History Date:

Thursday, July 31, 2014

  Actual Average Record
Temperature  
Mean Temperature 80 °F 81 °F  
Max Temperature 89 °F 90 °F 96 °F (2002)
Min Temperature 71 °F 72 °F 64 °F (2001)
Degree Days  
Heating Degree Days 0 0  
Month to date heating degree days 0 0  
Since 1 June heating degree days 0 0  
Since 1 July heating degree days 0 0  
Cooling Degree Days 15 16  
Month to date cooling degree days 483 500  
Year to date cooling degree days 1229 1138  
Since 1 June cooling degree days 941 888  
Growing Degree Days 29 (Base 50)    
Moisture  
Dew Point 67 °F    
Average Humidity 65    
Maximum Humidity 84    
Minimum Humidity 45    
Precipitation  
Precipitation T in 0.20 in 1.05 in (2005)
Month to date precipitation 4.44 5.48  
Year to date precipitation 29.27 24.89  
Sea Level Pressure  
Sea Level Pressure 30.08 in    
Wind  
Wind Speed 6 mph (East)    
Max Wind Speed 14 mph    
Max Gust Speed 20 mph    
Visibility 10 miles    
Events Rain    
T = Trace of Precipitation, MM = Missing Value Source: NWS Daily Summary

Daily Weather History Graph

Daily Weather History Graph

Search for Another Location

Airport:

Trip Planner

Search our weather history database for the weather conditions in past years. The results will help you decide how hot, cold, wet, or windy it might be!

Date:

Astronomy

Jul. 31, 2014 Rise Set
Actual Time 6:25 AM EDT 8:19 PM EDT
Civil Twilight 5:57 AM EDT 8:46 PM EDT
Nautical Twilight 5:24 AM EDT 9:20 PM EDT
Astronomical Twilight 4:48 AM EDT 9:55 PM EDT
Moon 10:38 AM EDT (7/31) 10:45 PM EDT (7/31)
Length of Visible Light 14h 48m
Length of Day
13h 53m
Waxing Crescent, 19% of the Moon is Illuminated
Jul 31
Waxing Crescent
Aug 3
First Quarter
Aug 10
Full
Aug 17
Last Quarter
Aug 25
New

Hourly Weather History & Observations

Time (EDT) Temp. Heat Index Dew Point Humidity Pressure Visibility Wind Dir Wind Speed Gust Speed Precip Events Conditions
12:54 AM 73.9 °F - 66.0 °F 76% 30.06 in 10.0 mi Calm Calm - N/A   Overcast
1:54 AM 73.9 °F - 66.0 °F 76% 30.07 in 10.0 mi NNW 5.8 mph - N/A   Overcast
2:54 AM 72.0 °F - 66.9 °F 84% 30.06 in 10.0 mi North 3.5 mph - N/A   Mostly Cloudy
3:54 AM 72.0 °F - 66.9 °F 84% 30.06 in 10.0 mi NNE 8.1 mph - N/A   Overcast
4:54 AM 71.1 °F - 66.9 °F 87% 30.06 in 10.0 mi Calm Calm - N/A   Mostly Cloudy
5:54 AM 72.0 °F - 66.0 °F 81% 30.06 in 10.0 mi Calm Calm - N/A   Overcast
6:54 AM 71.1 °F - 66.9 °F 87% 30.07 in 10.0 mi ENE 4.6 mph - N/A   Mostly Cloudy
7:54 AM 72.0 °F - 66.9 °F 84% 30.09 in 9.0 mi ENE 3.5 mph - N/A   Mostly Cloudy
8:54 AM 73.0 °F - 68.0 °F 84% 30.10 in 10.0 mi East 3.5 mph - N/A   Overcast
9:54 AM 77.0 °F - 68.0 °F 74% 30.10 in 10.0 mi East 4.6 mph - N/A   Scattered Clouds
10:54 AM 81.0 °F 84.1 °F 69.1 °F 67% 30.10 in 10.0 mi ESE 9.2 mph - N/A   Partly Cloudy
11:54 AM 82.9 °F 85.8 °F 68.0 °F 60% 30.10 in - East 9.2 mph - N/A   Scattered Clouds
12:54 PM 86.0 °F 86.8 °F 63.0 °F 46% 30.09 in 10.0 mi North - - N/A   Clear
1:54 PM 87.1 °F 88.3 °F 64.0 °F 46% 30.09 in 10.0 mi North - - N/A   Unknown
2:54 PM 87.1 °F 88.9 °F 64.9 °F 48% 30.08 in 10.0 mi ESE 9.2 mph - N/A   Scattered Clouds
3:54 PM 86.0 °F 87.6 °F 64.9 °F 49% 30.07 in 10.0 mi ESE 10.4 mph - N/A   Scattered Clouds
4:54 PM 82.9 °F 85.4 °F 66.9 °F 58% 30.07 in 10.0 mi ESE 6.9 mph - N/A   Overcast
5:54 PM 79.0 °F - 69.1 °F 72% 30.09 in 9.0 mi SSE 6.9 mph - 0.00 in Rain Light Rain
6:54 PM 78.1 °F - 69.1 °F 74% 30.09 in 10.0 mi East 3.5 mph - 0.00 in   Partly Cloudy
9:54 PM 75.9 °F - 68.0 °F 76% 30.09 in 10.0 mi East 5.8 mph - N/A   Clear
10:54 PM 75.9 °F - 68.0 °F 76% 30.11 in 10.0 mi ENE 5.8 mph - N/A   Mostly Cloudy
11:54 PM 75.9 °F - 68.0 °F 76% 30.09 in 10.0 mi East 6.9 mph - N/A   Partly Cloudy